Date,TemperatureHighF,TemperatureAvgF,TemperatureLowF,DewpointHighF,DewpointAvgF,DewpointLowF,HumidityHigh,HumidityAvg,HumidityLow,PressureMaxIn,PressureMinIn,WindSpeedMaxMPH,WindSpeedAvgMPH,GustSpeedMaxMPH,PrecipitationSumIn
2013-8-1,82,73,68,81,72,67,96,96,94,30.04,29.84,18,2,18,0.54
2013-8-2,88,76,65,80,72,63,96,90,71,30.01,29.90,6,1,6,0.00
2013-8-3,88,76,68,81,74,67,96,93,74,30.00,29.93,9,1,9,0.00
2013-8-4,83,75,64,71,68,63,96,82,56,30.06,29.93,13,2,13,0.00
2013-8-5,84,70,60,71,65,59,96,85,60,30.13,30.04,5,1,5,0.00
2013-8-6,77,71,67,76,70,66,96,96,96,30.08,30.00,6,1,6,0.30
2013-8-7,87,78,70,82,75,69,96,92,78,30.10,30.03,9,2,9,0.00
2013-8-8,88,81,75,84,79,74,96,93,81,30.08,30.00,8,2,8,0.00
2013-8-9,94,84,77,88,81,76,96,92,78,30.02,29.92,11,2,11,0.00
2013-8-10,88,78,73,84,77,72,96,95,86,30.12,29.99,11,1,11,0.31
2013-8-11,83,76,72,82,75,71,96,96,96,30.14,30.03,4,0,4,0.02
2013-8-12,90,80,72,84,77,71,96,91,75,30.06,29.94,6,1,6,0.01
2013-8-13,88,79,74,85,78,73,96,95,84,29.94,29.77,8,1,8,0.00
2013-8-14,74,69,58,73,62,55,96,81,61,30.13,29.82,10,2,10,0.02
2013-8-15,79,65,55,71,62,54,96,89,65,30.20,30.11,4,0,4,0.00
2013-8-16,79,66,56,71,63,55,96,89,64,30.23,30.14,5,1,5,0.00
2013-8-17,81,69,59,75,67,58,96,92,77,30.25,30.19,7,1,7,0.15
2013-8-18,70,66,64,68,65,63,96,96,96,30.25,30.16,6,1,6,0.70
2013-8-19,73,68,64,72,67,63,96,96,96,30.23,30.10,4,0,4,0.13
2013-8-20,86,75,67,82,74,66,96,95,84,30.20,30.12,5,1,5,0.00
2013-8-21,89,78,68,85,76,67,96,94,83,30.24,30.11,5,1,5,0.00
2013-8-22,90,79,72,83,76,71,96,92,73,30.13,29.99,7,1,7,0.00
2013-8-23,78,70,63,77,69,61,96,96,96,30.14,29.95,10,1,10,1.12
2013-8-24,83,69,58,77,66,57,96,90,68,30.35,30.13,8,1,8,0.01
2013-8-25,81,69,60,75,65,58,96,88,64,30.43,30.31,6,1,6,0.00
2013-8-26,86,71,56,76,66,55,96,86,67,30.35,30.08,9,1,9,0.00
2013-8-27,90,77,66,83,74,65,96,92,75,30.08,29.93,5,1,5,0.02
2013-8-28,80,75,72,78,74,71,96,96,96,29.99,29.84,6,1,6,0.28
2013-8-29,85,76,70,82,75,68,96,95,88,30.05,29.83,8,1,8,0.00
2013-8-30,87,75,66,81,73,20,96,92,73,30.08,29.95,8,1,8,0.00
2013-8-31,89,78,70,84,76,69,96,93,81,29.97,29.84,13,2,13,0.05